Weather Service Report


408 
ASUS41 KBOX 301410
RWRBOX

REGIONAL WEATHER ROUNDUP
NATIONAL WEATHER SERVICE TAUNTON MA
1000 AM EDT THU JUN 30 2016

NOTE:  "FAIR" INDICATES FEW OR NO CLOUDS BELOW 12,000 FEET WITH NO 
SIGNIFICANT WEATHER AND/OR OBSTRUCTIONS TO VISIBILITY.  THE FOLLOWING 
OBSERVATION LOCATIONS DO NOT REPORT PRESENT WEATHER...PROVINCETOWN...
SMITHFIELD...BLOCK ISLAND...KEENE...AND OXFORD.

MAZALL-301500-
EASTERN MASSACHUSETTS
  
CITY           SKY/WX    TMP DP  RH WIND       PRES   REMARKS
BOSTON         SUNNY     78  54  43 NW9       29.97S                  
BEVERLY        SUNNY     76  60  57 N7        29.96S                  
LAWRENCE       SUNNY     78  56  46 NW9G16    29.99S                  
BEDFORD        SUNNY     78  53  41 N9        29.97R                  
BLUE HILL        N/A     75  57  53 NW9       29.98S                  
NORWOOD        SUNNY     77  59  53 NW7       29.97S                  
MARSHFIELD     SUNNY     77  57  50 VRB6      29.96S                  
PLYMOUTH       SUNNY     77  58  51 CALM      29.97S                  
TAUNTON        SUNNY     79  59  50 VRB7      29.96F                  
NEW BEDFORD    SUNNY     78  59  51 N7        29.96F                  
$$

MAZALL-301500-
CAPE COD AND THE ISLANDS
  
CITY           SKY/WX    TMP DP  RH WIND       PRES   REMARKS
FALMOUTH       SUNNY     77  61  57 VRB3      29.97S                  
HYANNIS        SUNNY     73  59  61 N12       29.96R                  
CHATHAM        SUNNY     74  64  71 NW6       29.97R                  
PROVINCETOWN   SUNNY     70  61  73 NW6       29.98S                  
NANTUCKET      SUNNY     75  63  66 N12       29.96S                  
MARTHAS VNYRD  SUNNY     77  62  59 NE8       29.97S                  
$$
 
MAZALL-301500-
CENTRAL AND WESTERN MASSACHUSETTS
  
CITY           SKY/WX    TMP DP  RH WIND       PRES   REMARKS
WORCESTER      SUNNY     72  51  47 N9        30.01F                  
FITCHBURG      SUNNY     79  50  36 NE9       30.00S                  
ORANGE         SUNNY     76  54  46 N8        30.00F                  
SPRINGFIELD    MOSUNNY   76  58  53 NW8       29.98F                  
WESTFIELD      SUNNY     77  56  48 CALM      29.99F                  
NORTH ADAMS    SUNNY     70  58  65 W3        30.02S                  
PITTSFIELD     SUNNY     71  55  56 NW9       30.02S                  
$$
 
RIZALL-301500-
RHODE ISLAND
  
CITY           SKY/WX    TMP DP  RH WIND       PRES   REMARKS
PROVIDENCE     SUNNY     78  53  41 NW10      29.98F                  
NEWPORT        SUNNY     76  59  55 N7        29.98S                  
BLOCK ISLAND   SUNNY     75  61  61 VRB3      29.99S                  
SMITHFIELD     MOSUNNY   75  55  50 N7        29.99S                  
WESTERLY       SUNNY     79  56  45 VRB7      29.98F                  
$$
 
CTZALL-301500-
CONNECTICUT
  
CITY           SKY/WX    TMP DP  RH WIND       PRES   REMARKS
BRADLEY INTL   MOSUNNY   77  58  51 VRB7      29.98F                  
HARTFORD       SUNNY     79  59  50 NE8       29.99F                  
BRIDGEPORT     SUNNY     79  56  45 N9        30.00S                  
DANBURY        SUNNY     74  55  51 VRB6      30.03S                  
GROTON         SUNNY     79  62  56 N6        29.97F                  
NEW HAVEN      SUNNY     75  59  57 SW6       29.99F                  
CHESTER        FAIR      75  59  57 N7        30.00F                  
MERIDEN        SUNNY     79  56  45 N7        29.99F                  
WILLIMANTIC    SUNNY     79  58  48 N7        29.99F                  
OXFORD         SUNNY     73  55  53 N7        30.03S                  
$$

MEZ002-015-021-024-NHZ003-005-008-011-012-014-VTZ005-008-301500-
NORTHERN NEW ENGLAND
  
CITY           SKY/WX    TMP DP  RH WIND       PRES   REMARKS
PORTLAND ME    MOSUNNY   75  58  55 NW10      29.95S                  
BANGOR ME      MOSUNNY   74  59  59 NW10      29.92R                  
CONCORD NH     SUNNY     76  56  49 NW9       29.98S                  
MANCHESTER NH  SUNNY     76  52  43 N14       29.97S                  
NASHUA NH      SUNNY     76  55  48 N8        29.98F                  
PORTSMOUTH NH  SUNNY     76  60  57 N8        29.95S                  
JAFFREY NH     SUNNY     73  50  44 NW6       30.02S                  
KEENE NH       SUNNY     73  57  56 NE3       30.01S                  
BURLINGTON VT  FAIR      74  57  55 S12       29.98S                  
MT. WASHINGTON FOG       43  43 100 NW38        N/A  VSB 1/8 WCI  31  
$$

NYZ052-076-301500-
EASTERN NEW YORK
  
CITY           SKY/WX    TMP DP  RH WIND       PRES   REMARKS
ALBANY         MOSUNNY   73  58  59 CALM      30.02S                  
NEW YORK CITY  MOSUNNY   78  57  48 NE3       30.01S                  
$$
 
ANZALL-301500-
MARINE OBSERVATIONS
  
STATION/POSITION TIME  TEMP    WIND        PRES    VSBY  WAVE
                       AIR SEA DIR/SP/G                  HT/PER
                 (UTC) (F)     (DEG/KT/KT) (MB)    (MI)  (FT/S)
BOSTON BUOY      1350   64 63  240/  4/  4 1014.8R         2/11
BUZZARDS BAY     1300   70     300/  4/  4 1015.4R
NANTUCKET SOUND  1350   70 69  350/  6/  8 1014.5R         1/ 7
MASS BAY-STELLWA 1304   64 63                N/A    1 7/8  2/ 8
ISLE OF SHOALS   1300   67      CALM  /  2 1014.4R
S OF BLOCK IS    1325      67                N/A           3/ 7
$$

......................KEY.........................
  SKY/WX - SKY CONDITION/PRESENT WEATHER
  TMP    - TEMPERATURE IN FAHRENHEIT
  DWPT   - DEWPOINT IN FAHRENHEIT
  RH     - RELATIVE HUMIDITY IN PERCENT
  WIND   - DIRECTION AND SPEED IN MPH
  PRES   - MEAN SEA LEVEL PRESSURE IN INCHES OF HG
  WCI    - WIND CHILL INDEX
  VSB    - VISIBILITY IN MILES
  HX     - HEAT INDEX
  TC     - TEMPERATURE IN CELSIUS
  VRB    - VARIABLE WIND DIRECTION
  N/A    - NOT AVAILABLE
  

Return to Home page


Western Regional Climate Center, wrcc@dri.edu